Tracking 27380 objects as of 6-Jun-2023
HD Live streaming from Space Station
objects crossing your sky now

STARLINK-4685

Track STARLINK-4685 now!
10-day predictions
STARLINK-4685 is classified as:


NORAD ID: 53709
Int'l Code: 2022-107K
Perigee: 546.1 km
Apogee: 547.7 km
Inclination: 53.2 °
Period: 95.4 minutes
Semi major axis: 6917 km
RCS: Unknown
Launch date: September 5, 2022
Source: United States (US)
Launch site: AIR FORCE EASTERN TEST RANGE (AFETR)
Your satellite tracking list
Your tracking list is empty




NASA's NSSDC Master Catalog

Two Line Element Set (TLE):
1 53709U 22107K   23156.81584406  .00000399  00000-0  43165-4 0  9993
2 53709  53.2163  93.3364 0001220  77.1458 282.9670 15.08834379 42324
Source of the keplerian elements: AFSPC